Vorticity
7 3 3 4 4 4 4 4 4 5 5 6 5 5 5 5 5 5 6 6 6 6 5 4 5 5 4 4 3 3 2 3 3 3 4 4 3 3 3 4 6 10 11
4 3 3 3 5 4 5 4 5 5 5 5 5 5 5 6 6 6 7 6 5 5 6 6 6 6 5 5 4 4 4 3 4 3 3 3 4 4 3 3 4 3 4
5 4 4 5 6 5 5 5 5 5 5 5 6 6 6 6 6 6 6 6 5 5 6 6 7 7 7 7 6 6 5 4 4 4 4 3 4 3 3 4 4 3 3
5 4 5 6 6 6 6 5 5 6 6 6 6 6 6 5 6 6 7 7 7 7 7 6 6 6 6 7 7 8 7 6 6 4 4 4 4 4 4 4 4 4 3
7 5 4 6 7 6 5 5 5 6 6 6 6 6 6 7 7 7 7 6 5 5 4 4 5 4 4 4 5 5 4 5 7 7 7 6 5 4 4 3 4 3 3
7 5 5 5 4 5 5 5 5 6 6 7 7 7 7 7 6 5 5 5 4 4 4 4 4 4 4 4 4 4 4 4 5 5 5 4 4 4 5 6 4 4 3
6 5 5 5 4 3 4 4 5 5 6 7 7 7 6 6 5 4 4 4 4 4 4 5 5 5 6 7 7 7 6 6 6 6 5 4 4 4 4 6 7 9 5
6 5 4 3 3 3 3 4 4 5 6 6 7 6 6 5 5 4 4 4 4 5 6 6 7 8 8 8 8 7 7 7 8 8 7 7 6 5 5 6 5 8 4
8 6 4 3 3 3 3 3 4 4 5 6 7 7 6 5 5 4 3 3 4 6 6 7 7 6 6 5 5 5 5 5 5 6 6 8 8 8 8 9 6 6 4
7 5 4 3 3 3 3 3 4 4 5 6 7 7 7 5 5 4 4 5 5 6 6 7 6 5 5 5 5 6 6 6 7 7 7 7 7 7 8 9 7 6 8
7 6 4 3 4 4 3 3 4 4 5 6 7 7 6 5 4 4 4 4 6 7 7 6 5 5 5 6 7 8 9 9 9 9 9 8 8 8 8 9 10 8 10
4 6 5 4 4 4 4 3 4 4 6 7 8 6 6 5 4 5 5 6 7 7 6 5 5 5 6 7 8 8 8 9 9 9 9 10 10 10 9 10 7 -2 11
1 4 4 5 5 5 4 4 3 4 6 7 7 6 4 4 5 5 6 6 6 5 4 4 5 7 8 8 9 9 9 9 9 9 9 9 9 10 11 12 12 10 10
3 4 3 4 4 4 4 4 4 4 6 6 7 5 5 5 4 5 6 6 5 4 4 5 6 8 10 10 9 10 10 11 12 13 13 15 14 12 11 11 13 12 12
1 5 3 4 4 4 5 4 4 5 6 6 7 6 5 4 5 6 6 5 4 4 5 7 9 9 10 10 10 11 11 11 10 10 12 14 15 14 13 12 11 11 12
4 5 3 4 3 4 4 4 4 6 5 6 7 5 4 5 6 6 5 4 4 5 7 8 8 9 9 11 11 11 10 10 11 15 15 12 12 13 13 14 11 13 13
5 5 5 4 4 4 4 4 4 5 6 7 6 4 4 6 6 6 5 5 6 7 7 8 10 11 10 11 12 10 8 10 13 14 10 11 11 11 13 13 13 15 12
5 8 7 4 4 5 4 4 5 4 6 7 5 4 6 6 6 5 6 6 6 7 10 10 9 10 11 11 12 10 6 7 12 15 10 9 9 10 9 11 11 11 10
8 9 5 4 4 5 4 4 5 4 7 6 5 6 5 5 5 6 7 7 8 8 9 9 10 11 11 11 12 11 6 4 6 10 13 13 13 11 11 11 11 10 9
9 6 5 4 5 4 5 5 5 4 7 6 5 6 5 6 7 7 6 6 7 7 6 8 9 9 11 11 11 12 11 4 5 6 7 8 8 9 10 10 12 12 12
8 6 3 5 5 6 4 4 5 5 7 6 6 4 6 7 6 5 6 8 6 5 5 4 8 10 10 10 11 11 9 9 7 5 7 8 12 11 9 9 10 12 11
3 2 5 6 5 5 4 5 6 8 6 6 6 5 7 7 6 6 8 7 5 5 5 5 5 10 11 11 9 11 11 8 6 5 5 5 7 6 9 10 10 11 12
7 5 5 4 7 5 6 6 8 8 7 6 5 7 7 6 7 8 7 6 5 4 5 5 4 7 9 10 10 7 11 11 8 6 6 6 6 5 6 7 8 8 11
7 5 6 8 5 7 7 8 9 8 7 6 7 7 7 8 7 4 3 4 4 5 5 5 5 6 8 7 8 8 7 7 10 9 11 9 7 6 6 6 6 7 9
9 8 7 6 7 8 10 9 9 8 8 7 6 8 8 5 1 4 6 7 8 8 8 8 8 9 7 7 6 7 8 6 6 6 8 7 9 8 9 6 6 7 7
7 7 8 9 10 9 10 9 8 8 7 7 9 7 3 2 5 8 10 12 12 11 10 11 11 11 9 8 6 4 4 6 6 6 6 8 8 6 6 7 9 7 6
Height
3183 3184 3185 3186 3186 3186 3186 3186 3186 3185 3184 3183 3182 3181 3181 3179 3179 3178 3177 3176 3174 3173 3172 3171 3170 3169 3168 3166 3165 3164 3163 3162 3161 3160 3159 3158 3157 3156 3156 3155 3154 3153 3152
3183 3184 3185 3185 3186 3187 3187 3186 3185 3185 3184 3183 3182 3181 3180 3180 3178 3178 3176 3175 3173 3172 3171 3171 3170 3168 3167 3166 3164 3163 3162 3161 3160 3158 3158 3157 3155 3154 3153 3153 3153 3152 3150
3181 3183 3185 3186 3187 3187 3187 3186 3186 3185 3184 3183 3182 3181 3180 3179 3178 3177 3176 3175 3173 3172 3171 3170 3169 3167 3166 3164 3163 3162 3161 3160 3158 3157 3156 3155 3154 3153 3152 3151 3150 3149 3149
3181 3183 3184 3186 3187 3187 3187 3187 3186 3185 3183 3182 3181 3181 3180 3179 3178 3177 3176 3174 3172 3171 3170 3169 3168 3166 3165 3164 3162 3160 3159 3157 3156 3155 3154 3153 3153 3152 3150 3150 3148 3147 3146
3181 3182 3184 3186 3187 3187 3187 3186 3186 3185 3184 3182 3181 3180 3179 3178 3177 3176 3175 3174 3172 3170 3169 3167 3166 3165 3163 3161 3160 3159 3157 3155 3154 3152 3151 3150 3149 3148 3148 3147 3147 3146 3145
3181 3182 3184 3186 3187 3188 3187 3186 3185 3185 3184 3182 3181 3180 3178 3177 3176 3175 3174 3173 3171 3169 3168 3166 3164 3163 3161 3159 3157 3156 3154 3153 3152 3150 3148 3147 3146 3144 3144 3143 3143 3142 3142
3181 3183 3184 3186 3187 3187 3187 3186 3185 3184 3183 3182 3181 3179 3178 3177 3176 3174 3173 3172 3170 3168 3166 3164 3162 3160 3158 3157 3155 3152 3151 3149 3148 3146 3144 3143 3142 3141 3141 3141 3140 3139 3138
3182 3183 3185 3186 3187 3187 3187 3186 3185 3183 3182 3181 3180 3179 3178 3176 3175 3174 3172 3171 3169 3167 3165 3162 3160 3158 3156 3153 3152 3149 3147 3145 3143 3141 3140 3138 3137 3135 3135 3136 3136 3135 3134
3183 3184 3185 3186 3187 3187 3187 3186 3184 3183 3182 3181 3180 3179 3178 3176 3175 3173 3171 3169 3167 3165 3163 3160 3157 3155 3153 3150 3148 3145 3143 3141 3139 3137 3135 3133 3132 3130 3130 3130 3130 3130 3130
3182 3183 3185 3186 3187 3187 3186 3185 3184 3182 3181 3180 3179 3178 3177 3176 3174 3172 3170 3168 3165 3162 3160 3157 3155 3152 3150 3147 3144 3142 3139 3136 3134 3132 3129 3128 3126 3125 3124 3123 3123 3124 3124
3182 3183 3184 3185 3186 3186 3185 3185 3183 3182 3180 3179 3178 3177 3176 3174 3172 3170 3168 3165 3163 3160 3157 3155 3152 3149 3146 3143 3140 3136 3134 3131 3128 3125 3123 3122 3120 3118 3118 3117 3116 3116 3116
3181 3183 3183 3184 3185 3184 3184 3184 3182 3181 3179 3178 3177 3175 3174 3172 3170 3169 3166 3163 3160 3157 3155 3152 3149 3145 3142 3139 3135 3131 3128 3125 3123 3120 3118 3115 3114 3112 3111 3110 3109 3109 3109
3181 3182 3183 3183 3184 3183 3183 3183 3182 3180 3179 3177 3175 3173 3171 3171 3168 3166 3163 3160 3157 3154 3151 3148 3145 3141 3137 3134 3130 3127 3123 3120 3117 3114 3111 3109 3107 3106 3104 3103 3103 3102 3102
3180 3181 3181 3181 3182 3181 3182 3182 3181 3179 3177 3175 3174 3171 3170 3168 3166 3163 3160 3157 3154 3151 3148 3145 3141 3137 3133 3129 3125 3122 3118 3114 3111 3108 3106 3103 3101 3099 3097 3096 3095 3094 3093
3178 3179 3179 3179 3180 3180 3179 3179 3179 3177 3175 3173 3172 3169 3168 3166 3163 3160 3157 3154 3151 3148 3144 3140 3136 3133 3129 3125 3121 3117 3113 3110 3107 3104 3101 3098 3095 3093 3091 3090 3088 3087 3087
3176 3177 3177 3177 3177 3178 3177 3177 3176 3175 3173 3171 3169 3167 3165 3163 3160 3157 3154 3151 3148 3145 3141 3137 3133 3129 3126 3122 3117 3113 3110 3106 3103 3099 3097 3094 3091 3090 3088 3086 3083 3083 3082
3173 3174 3175 3174 3174 3175 3175 3174 3174 3173 3170 3168 3167 3164 3162 3159 3157 3154 3151 3148 3145 3141 3137 3133 3129 3125 3121 3117 3114 3111 3108 3104 3100 3096 3093 3091 3089 3086 3084 3082 3080 3080 3078
3170 3171 3171 3172 3172 3172 3172 3171 3171 3169 3167 3166 3163 3161 3159 3156 3153 3150 3148 3144 3141 3138 3134 3129 3125 3121 3118 3114 3111 3108 3105 3102 3098 3094 3091 3088 3085 3083 3081 3080 3079 3077 3076
3167 3168 3169 3169 3169 3169 3169 3168 3167 3166 3165 3162 3160 3157 3155 3152 3150 3147 3144 3141 3137 3133 3130 3126 3121 3119 3115 3111 3108 3105 3103 3099 3096 3092 3089 3085 3083 3081 3080 3078 3076 3075 3074
3164 3165 3166 3166 3166 3166 3165 3165 3164 3162 3161 3158 3156 3154 3151 3149 3146 3143 3139 3137 3133 3130 3126 3122 3118 3114 3112 3108 3105 3102 3100 3097 3094 3091 3088 3085 3082 3079 3077 3076 3074 3072 3071
3161 3162 3163 3163 3163 3162 3162 3161 3160 3158 3156 3154 3152 3150 3147 3145 3142 3139 3136 3133 3130 3127 3124 3120 3116 3112 3109 3106 3102 3099 3097 3094 3092 3089 3087 3084 3082 3078 3076 3073 3071 3070 3068
3157 3158 3159 3159 3159 3158 3157 3156 3154 3153 3151 3150 3148 3145 3143 3141 3138 3136 3132 3129 3127 3124 3120 3117 3112 3109 3106 3104 3099 3097 3095 3093 3089 3087 3084 3082 3079 3077 3074 3072 3070 3068 3066
3153 3154 3154 3155 3154 3154 3152 3151 3150 3149 3148 3146 3144 3142 3139 3137 3134 3132 3129 3126 3123 3120 3117 3113 3111 3106 3103 3101 3098 3094 3091 3089 3086 3084 3082 3079 3077 3075 3072 3070 3068 3066 3064
3149 3149 3150 3150 3149 3149 3148 3147 3146 3145 3144 3142 3139 3137 3135 3132 3130 3128 3125 3122 3118 3115 3112 3109 3106 3103 3100 3098 3096 3092 3089 3086 3083 3082 3078 3076 3074 3073 3070 3068 3066 3064 3062
3144 3145 3146 3145 3145 3144 3143 3143 3142 3140 3139 3136 3135 3133 3131 3128 3126 3123 3120 3117 3114 3110 3107 3104 3101 3098 3095 3094 3092 3090 3087 3083 3080 3078 3077 3073 3070 3068 3067 3066 3063 3061 3059
3140 3141 3142 3142 3141 3140 3139 3138 3137 3135 3134 3132 3130 3129 3127 3124 3121 3117 3114 3110 3107 3104 3102 3099 3096 3093 3090 3089 3087 3086 3083 3081 3077 3073 3072 3070 3069 3066 3062 3061 3060 3058 3056